Track STARLINK 1024 now! 10-day predictions STARLINK 1024 is classified as:
1 44729U 19074S 22177.86300719 .00009413 00000-0 52882-3 0 9995 2 44729 53.0018 144.2681 0001920 37.0511 323.0613 15.13962693144833